Time,TemperatureF,DewpointF,PressureIn,WindDirection,WindDirectionDegrees,WindSpeedMPH,WindSpeedGustMPH,Humidity,HourlyPrecipIn,Conditions,Clouds,dailyrainin,SoftwareType,DateUTC
2013-02-20 00:13:00,34.2,32.1,29.77,NNW,337,0.0,-999.0,92,-99.99,,,0.00,Acu-Link.com,2013-02-20 08:13:00,
2013-02-20 00:28:00,33.6,31.5,29.78,NE,45,0.0,-999.0,92,-99.99,,,0.00,Acu-Link.com,2013-02-20 08:28:00,
2013-02-20 00:43:00,33.4,31.3,29.78,NNW,337,0.0,-999.0,92,-99.99,,,0.00,Acu-Link.com,2013-02-20 08:43:00,
2013-02-20 00:59:00,34.0,32.2,29.78,NNW,337,1.7,-999.0,93,-99.99,,,0.00,Acu-Link.com,2013-02-20 08:59:00,
2013-02-20 01:18:00,34.2,32.4,29.78,NNW,337,1.7,-999.0,93,-99.99,,,0.00,Acu-Link.com,2013-02-20 09:18:00,
2013-02-20 01:33:00,33.8,32.0,29.79,NNW,337,0.0,-999.0,93,-99.99,,,0.00,Acu-Link.com,2013-02-20 09:33:00,
2013-02-20 01:48:00,33.3,31.5,29.79,West,270,0.0,-999.0,93,-99.99,,,0.00,Acu-Link.com,2013-02-20 09:48:00,
2013-02-20 02:03:00,32.9,31.1,29.79,SW,225,0.0,-999.0,93,-99.99,,,0.00,Acu-Link.com,2013-02-20 10:03:00,
2013-02-20 02:18:00,32.5,30.7,29.80,WSW,247,0.0,-999.0,93,-99.99,,,0.00,Acu-Link.com,2013-02-20 10:18:00,
2013-02-20 02:33:00,32.2,30.4,29.80,West,270,0.0,-999.0,93,-99.99,,,0.00,Acu-Link.com,2013-02-20 10:33:00,
2013-02-20 02:48:00,32.0,30.2,29.81,NNW,337,0.0,-999.0,93,-99.99,,,0.00,Acu-Link.com,2013-02-20 10:48:00,
2013-02-20 03:03:00,32.0,30.2,29.81,WNW,292,1.7,-999.0,93,-99.99,,,0.00,Acu-Link.com,2013-02-20 11:03:00,
2013-02-20 03:19:00,31.8,30.0,29.82,West,270,0.0,-999.0,93,-99.99,,,0.00,Acu-Link.com,2013-02-20 11:19:00,
2013-02-20 03:34:00,31.3,29.5,29.82,SSW,202,0.0,-999.0,93,-99.99,,,0.00,Acu-Link.com,2013-02-20 11:34:00,
2013-02-20 03:49:00,31.8,30.0,29.83,WSW,247,2.7,-999.0,93,-99.99,,,0.00,Acu-Link.com,2013-02-20 11:49:00,
2013-02-20 04:04:00,32.2,30.4,29.83,NNE,22,0.0,-999.0,93,-99.99,,,0.00,Acu-Link.com,2013-02-20 12:04:00,
2013-02-20 04:19:00,33.3,31.5,29.83,ENE,67,0.0,-999.0,93,-99.99,,,0.00,Acu-Link.com,2013-02-20 12:19:00,
2013-02-20 08:58:00,49.1,41.5,29.91,NNE,22,2.7,-999.0,75,-99.99,,,0.00,Acu-Link.com,2013-02-20 16:58:00,
2013-02-20 09:13:00,50.7,42.0,29.91,NE,45,3.2,-999.0,72,-99.99,,,0.00,Acu-Link.com,2013-02-20 17:13:00,
2013-02-20 09:28:00,51.6,42.1,29.91,East,90,2.2,-999.0,70,-99.99,,,0.00,Acu-Link.com,2013-02-20 17:28:00,
2013-02-20 09:43:00,51.4,41.2,29.92,SE,135,2.7,-999.0,68,-99.99,,,0.00,Acu-Link.com,2013-02-20 17:43:00,
2013-02-20 09:58:00,53.2,42.1,29.91,SE,135,1.7,-999.0,66,-99.99,,,0.00,Acu-Link.com,2013-02-20 17:58:00,
2013-02-20 10:14:00,54.7,43.2,29.92,NE,45,3.2,-999.0,65,-99.99,,,0.00,Acu-Link.com,2013-02-20 18:14:00,
2013-02-20 10:29:00,54.9,43.0,29.92,East,90,1.7,-999.0,64,-99.99,,,0.00,Acu-Link.com,2013-02-20 18:29:00,
2013-02-20 10:44:00,57.9,43.7,29.92,ENE,67,2.7,-999.0,59,-99.99,,,0.00,Acu-Link.com,2013-02-20 18:44:00,
2013-02-20 10:59:00,58.5,43.8,29.92,SW,225,1.7,-999.0,58,-99.99,,,0.00,Acu-Link.com,2013-02-20 18:59:00,
2013-02-20 11:14:00,58.1,42.9,29.92,ESE,112,2.2,-999.0,57,-99.99,,,0.00,Acu-Link.com,2013-02-20 19:14:00,
2013-02-20 11:29:00,60.3,43.6,29.92,ESE,112,4.2,-999.0,54,-99.99,,,0.00,Acu-Link.com,2013-02-20 19:29:00,
2013-02-20 11:44:00,60.6,42.9,29.91,SE,135,2.7,-999.0,52,-99.99,,,0.00,Acu-Link.com,2013-02-20 19:44:00,
2013-02-20 11:59:00,62.1,39.3,29.91,NNE,22,3.2,-999.0,43,-99.99,,,0.00,Acu-Link.com,2013-02-20 19:59:00,
2013-02-20 12:14:00,61.9,39.7,29.91,SW,225,4.2,-999.0,44,-99.99,,,0.00,Acu-Link.com,2013-02-20 20:14:00,
2013-02-20 12:30:00,62.1,37.5,29.91,WSW,247,2.7,-999.0,40,-99.99,,,0.00,Acu-Link.com,2013-02-20 20:30:00,
2013-02-20 12:45:00,63.7,38.3,29.90,SSE,157,3.2,-999.0,39,-99.99,,,0.00,Acu-Link.com,2013-02-20 20:45:00,
2013-02-20 13:00:00,64.4,36.9,29.90,ESE,112,2.7,-999.0,36,-99.99,,,0.00,Acu-Link.com,2013-02-20 21:00:00,
2013-02-20 13:15:00,64.6,37.0,29.90,NNE,22,2.7,-999.0,36,-99.99,,,0.00,Acu-Link.com,2013-02-20 21:15:00,
2013-02-20 13:30:00,62.4,39.0,29.89,SW,225,5.8,-999.0,42,-99.99,,,0.00,Acu-Link.com,2013-02-20 21:30:00,
2013-02-20 13:45:00,62.1,40.5,29.88,SW,225,6.3,-999.0,45,-99.99,,,0.00,Acu-Link.com,2013-02-20 21:45:00,
2013-02-20 14:00:00,62.4,43.0,29.89,West,270,6.8,-999.0,49,-99.99,,,0.00,Acu-Link.com,2013-02-20 22:00:00,
2013-02-20 14:15:00,61.2,42.4,29.89,SW,225,4.7,-999.0,50,-99.99,,,0.00,Acu-Link.com,2013-02-20 22:15:00,
2013-02-20 14:30:00,62.6,42.1,29.88,West,270,5.3,-999.0,47,-99.99,,,0.00,Acu-Link.com,2013-02-20 22:30:00,
2013-02-20 14:46:00,61.0,41.7,29.88,SW,225,6.8,-999.0,49,-99.99,,,0.00,Acu-Link.com,2013-02-20 22:46:00,
2013-02-20 15:01:00,60.4,42.2,29.89,SW,225,5.3,-999.0,51,-99.99,,,0.00,Acu-Link.com,2013-02-20 23:01:00,
2013-02-20 15:16:00,60.1,41.9,29.89,SSW,202,5.3,-999.0,51,-99.99,,,0.00,Acu-Link.com,2013-02-20 23:16:00,
2013-02-20 15:31:00,60.4,41.7,29.88,WSW,247,5.3,-999.0,50,-99.99,,,0.00,Acu-Link.com,2013-02-20 23:31:00,
2013-02-20 15:46:00,60.8,42.0,29.89,ENE,67,4.2,-999.0,50,-99.99,,,0.00,Acu-Link.com,2013-02-20 23:46:00,
2013-02-20 16:01:00,59.9,42.2,29.89,SW,225,6.8,-999.0,52,-99.99,,,0.00,Acu-Link.com,2013-02-21 00:01:00,
2013-02-20 16:16:00,58.5,42.4,29.89,SW,225,5.8,-999.0,55,-99.99,,,0.00,Acu-Link.com,2013-02-21 00:16:00,
2013-02-20 16:31:00,57.7,42.6,29.90,West,270,2.2,-999.0,57,-99.99,,,0.00,Acu-Link.com,2013-02-21 00:31:00,
2013-02-20 16:47:00,57.2,41.6,29.90,WSW,247,5.8,-999.0,56,-99.99,,,0.00,Acu-Link.com,2013-02-21 00:47:00,
2013-02-20 17:02:00,56.1,41.5,29.91,WSW,247,4.7,-999.0,58,-99.99,,,0.00,Acu-Link.com,2013-02-21 01:02:00,
2013-02-20 17:17:00,56.7,42.1,29.91,ESE,112,4.2,-999.0,58,-99.99,,,0.00,Acu-Link.com,2013-02-21 01:17:00,
2013-02-20 17:32:00,54.3,41.6,29.91,West,270,2.2,-999.0,62,-99.99,,,0.00,Acu-Link.com,2013-02-21 01:32:00,
2013-02-20 17:47:00,52.3,40.9,29.91,WSW,247,1.7,-999.0,65,-99.99,,,0.00,Acu-Link.com,2013-02-21 01:47:00,
2013-02-20 18:02:00,50.5,40.3,29.91,WNW,292,2.2,-999.0,68,-99.99,,,0.00,Acu-Link.com,2013-02-21 02:02:00,
2013-02-20 18:17:00,48.9,39.9,29.92,North,0,1.7,-999.0,71,-99.99,,,0.00,Acu-Link.com,2013-02-21 02:17:00,
2013-02-20 18:32:00,47.7,39.5,29.93,SW,225,2.2,-999.0,73,-99.99,,,0.00,Acu-Link.com,2013-02-21 02:32:00,
2013-02-20 18:48:00,46.4,38.6,29.94,South,180,0.0,-999.0,74,-99.99,,,0.00,Acu-Link.com,2013-02-21 02:48:00,
2013-02-20 19:03:00,45.0,38.2,29.94,South,180,0.0,-999.0,77,-99.99,,,0.00,Acu-Link.com,2013-02-21 03:03:00,
2013-02-20 19:18:00,43.9,37.8,29.94,WNW,292,0.0,-999.0,79,-99.99,,,0.00,Acu-Link.com,2013-02-21 03:18:00,
2013-02-20 19:33:00,42.6,37.2,29.94,West,270,1.1,-999.0,81,-99.99,,,0.00,Acu-Link.com,2013-02-21 03:33:00,
2013-02-20 19:48:00,41.7,36.9,29.95,West,270,2.2,-999.0,83,-99.99,,,0.00,Acu-Link.com,2013-02-21 03:48:00,
2013-02-20 20:03:00,41.2,37.0,29.95,NW,315,1.7,-999.0,85,-99.99,,,0.00,Acu-Link.com,2013-02-21 04:03:00,
2013-02-20 20:18:00,40.5,36.4,29.96,WSW,247,1.7,-999.0,85,-99.99,,,0.00,Acu-Link.com,2013-02-21 04:18:00,
2013-02-20 20:33:00,39.9,36.4,29.96,East,90,1.7,-999.0,87,-99.99,,,0.00,Acu-Link.com,2013-02-21 04:33:00,
2013-02-20 20:49:00,40.8,37.8,29.96,NNE,22,1.1,-999.0,89,-99.99,,,0.00,Acu-Link.com,2013-02-21 04:49:00,
2013-02-20 21:04:00,40.6,37.3,29.96,North,0,0.0,-999.0,88,-99.99,,,0.00,Acu-Link.com,2013-02-21 05:04:00,
2013-02-20 21:19:00,40.3,37.3,29.97,NNE,22,0.0,-999.0,89,-99.99,,,0.00,Acu-Link.com,2013-02-21 05:19:00,
2013-02-20 21:34:00,40.1,37.1,29.98,NNW,337,1.7,-999.0,89,-99.99,,,0.00,Acu-Link.com,2013-02-21 05:34:00,
2013-02-20 21:49:00,41.0,38.6,29.97,WNW,292,3.2,-999.0,91,-99.99,,,0.00,Acu-Link.com,2013-02-21 05:49:00,
2013-02-20 22:04:00,43.2,40.5,29.99,WSW,247,3.7,-999.0,90,-99.99,,,0.00,Acu-Link.com,2013-02-21 06:04:00,
2013-02-20 22:19:00,44.4,40.8,29.98,SW,225,3.2,-999.0,87,-99.99,,,0.00,Acu-Link.com,2013-02-21 06:19:00,
2013-02-20 22:35:00,44.4,40.5,29.98,NNW,337,2.2,-999.0,86,-99.99,,,0.00,Acu-Link.com,2013-02-21 06:35:00,
2013-02-20 22:50:00,44.4,40.5,29.98,West,270,2.7,-999.0,86,-99.99,,,0.00,Acu-Link.com,2013-02-21 06:50:00,
2013-02-20 23:05:00,44.4,40.8,29.98,West,270,2.7,-999.0,87,-99.99,,,0.00,Acu-Link.com,2013-02-21 07:05:00,
2013-02-20 23:20:00,44.2,40.6,29.98,West,270,1.7,-999.0,87,-99.99,,,0.00,Acu-Link.com,2013-02-21 07:20:00,
2013-02-20 23:35:00,42.8,38.9,29.98,ESE,112,0.0,-999.0,86,-99.99,,,0.00,Acu-Link.com,2013-02-21 07:35:00,
2013-02-20 23:50:00,41.7,38.1,29.98,SW,225,1.1,-999.0,87,-99.99,,,0.00,Acu-Link.com,2013-02-21 07:50:00,